CCA982 KJFK-ZBAA

Flight info

Callsign CCA982
Flight time N/A
Altitude 32000
Route GAYEL Q812 SYR DCT TULEG DCT YYB DCT 50N083W 55N090W 60N100W 63N110W/N0483F340 65N120W 66N130W DCT GOATS DCT BTT NCA30 OME/N0494F360 R338 NATES/N0491F370 R220 NOGAL/N0482F380 R220 NANNO/N0481F390 R220 NODAN/N0484F380 R217 ASTER Y514 SDE Y512 GTC L512 KAMSA/N0493F400 L512 TENAS Y437 KAE Y697 AGAVO/K0895S1220 A591 IKEKA W4 HCH W200 DOVIV W55 DUMAP DUMAP2G
Aircraft B77W/H-SDE1E2E3FGHIJ2J3J4J5M1RWXY/LB1D1

Departure

Time N/A
Airport John F. Kennedy International Airport (KJFK)

Arrival

Time 2026-05-01 09:27
Airport Beijing Capital International Airport (ZBAA)
Time Latitude Longitude Altitude Speed Heading
2026-05-01 09:20 40.34078 116.57543 3793 ft 216 kts 186°
2026-05-01 09:21 40.31221 116.57766 3633 ft 194 kts 173°
2026-05-01 09:21 40.29886 116.57983 3437 ft 191 kts 172°
2026-05-01 09:21 40.27452 116.58385 3013 ft 166 kts 172°
2026-05-01 09:22 40.25075 116.58758 2977 ft 171 kts 172°
2026-05-01 09:22 40.22694 116.59132 2831 ft 173 kts 172°
2026-05-01 09:23 40.21548 116.59311 2612 ft 155 kts 172°
2026-05-01 09:23 40.19558 116.59625 2234 ft 139 kts 172°
2026-05-01 09:24 40.17659 116.59921 1854 ft 136 kts 171°
2026-05-01 09:24 40.16711 116.60072 1663 ft 136 kts 172°
2026-05-01 09:24 40.14820 116.60394 1232 ft 140 kts 171°
2026-05-01 09:25 40.12901 116.60660 818 ft 137 kts 171°
2026-05-01 09:25 40.10985 116.60994 480 ft 139 kts 172°
2026-05-01 09:26 40.10022 116.61123 299 ft 138 kts 173°
2026-05-01 09:26 40.08284 116.61388 129 ft 97 kts 174°
2026-05-01 09:26 40.07731 116.61472 129 ft 61 kts 173°
2026-05-01 09:27 40.07281 116.61478 129 ft 19 kts 198°
2026-05-01 09:27 40.07158 116.61415 129 ft 18 kts 202°
2026-05-01 09:27 40.07044 116.61356 129 ft 12 kts 191°
2026-05-01 09:28 40.06971 116.61314 129 ft 11 kts 236°
2026-05-01 09:28 40.06954 116.61210 129 ft 11 kts 262°
2026-05-01 09:28 40.06943 116.61101 129 ft 11 kts 263°
2026-05-01 09:28 40.06932 116.60980 129 ft 16 kts 263°
2026-05-01 09:29 40.06895 116.60593 129 ft 22 kts 263°
2026-05-01 09:29 40.06886 116.60459 129 ft 11 kts 279°
2026-05-01 09:30 40.06980 116.60407 129 ft 2 kts 358°
2026-05-01 09:30 40.07003 116.60413 129 ft 4 kts 25°
2026-05-01 09:30 40.07005 116.60483 129 ft 6 kts 95°
2026-05-01 09:31 40.07005 116.60521 129 ft 1 kts 85°
2026-05-01 09:31 40.07006 116.60526 129 ft 0 kts 84°